Time,TemperatureF,DewpointF,PressureIn,WindDirection,WindDirectionDegrees,WindSpeedMPH,WindSpeedGustMPH,Humidity,HourlyPrecipIn,Conditions,Clouds,dailyrainin,SoftwareType,DateUTC
2013-06-14 00:01:00,72.6,68.3,29.74,West,275,5.5,19.8,86,0.01, ,,-99.99,VWS V12.07,2013-06-14 04:01:00,
2013-06-14 00:02:00,73.2,68.9,29.74,West,267,5.7,19.8,86,0.01, ,,-99.99,VWS V12.07,2013-06-14 04:02:00,
2013-06-14 00:03:00,73.6,69.3,29.74,West,277,3.5,19.8,86,0.01, ,,-99.99,VWS V12.07,2013-06-14 04:03:00,
2013-06-14 00:07:00,73.2,69.6,29.76,West,280,11.0,19.8,88,0.01, ,,-99.99,VWS V12.07,2013-06-14 04:07:00,
2013-06-14 00:12:00,72.6,70.1,29.78,West,270,9.8,226.8,92,0.01, ,,-99.99,VWS V12.07,2013-06-14 04:12:00,
2013-06-14 00:18:00,72.7,69.9,29.79,NE,38,1.1,20.4,91,75.31, ,,-99.99,VWS V12.07,2013-06-14 04:18:00,
2013-06-14 00:24:00,72.3,69.4,29.78,West,277,12.6,24.4,90,0.02, ,,-99.99,VWS V12.07,2013-06-14 04:24:00,
2013-06-14 00:30:00,71.7,69.1,29.77,NW,320,8.5,24.4,91,0.03, ,,-99.99,VWS V12.07,2013-06-14 04:30:00,
2013-06-14 00:35:00,71.0,68.4,29.74,NW,316,7.1,24.4,92,0.03, ,,-99.99,VWS V12.07,2013-06-14 04:35:00,
2013-06-14 00:41:00,71.4,69.0,29.73,NW,310,10.6,15.1,92,0.04, ,,-99.99,VWS V12.07,2013-06-14 04:41:00,
2013-06-14 00:48:00,71.6,69.0,29.71,NNW,348,6.1,15.1,92,0.04, ,,-99.99,VWS V12.07,2013-06-14 04:48:00,
2013-06-14 00:54:00,71.6,69.1,29.71,NNW,333,8.9,15.1,92,0.04, ,,-99.99,VWS V12.07,2013-06-14 04:54:00,
2013-06-14 00:59:00,71.6,69.0,29.71,NNE,24,0.0,3.1,91,0.03, ,,-99.99,VWS V12.07,2013-06-14 04:59:00,
2013-06-14 01:04:00,71.5,69.0,29.72,WNW,294,0.0,5.2,92,0.03, ,,-99.99,VWS V12.07,2013-06-14 05:04:00,
2013-06-14 01:09:00,71.5,69.2,29.73,West,264,3.2,8.0,93,0.03, ,,-99.99,VWS V12.07,2013-06-14 05:09:00,
2013-06-14 01:14:00,71.4,69.2,29.71,North,353,0.0,8.0,93,0.04, ,,-99.99,VWS V12.07,2013-06-14 05:14:00,
2013-06-14 01:20:00,71.3,69.3,29.73,WSW,246,9.2,9.4,93,0.04, ,,-99.99,VWS V12.07,2013-06-14 05:20:00,
2013-06-14 01:26:00,71.2,61.4,29.74,NW,312,0.0,10.8,71,0.00, ,,-99.99,VWS V12.07,2013-06-14 05:26:00,
2013-06-14 01:31:00,70.9,69.1,29.73,WNW,296,8.0,12.0,94,0.05, ,,-99.99,VWS V12.07,2013-06-14 05:31:00,
2013-06-14 01:36:00,70.7,68.9,29.72,WSW,250,0.0,0.0,94,0.05, ,,-99.99,VWS V12.07,2013-06-14 05:36:00,
2013-06-14 01:41:00,70.7,69.1,29.74,West,271,9.0,11.1,94,0.06, ,,-99.99,VWS V12.07,2013-06-14 05:41:00,
2013-06-14 01:47:00,71.3,69.4,29.72,NW,326,8.1,11.9,94,0.06, ,,-99.99,VWS V12.07,2013-06-14 05:47:00,
2013-06-14 01:54:00,71.0,69.2,29.70,NW,309,10.0,11.9,94,0.07, ,,-99.99,VWS V12.07,2013-06-14 05:54:00,
2013-06-14 01:59:00,71.0,69.3,29.71,WNW,284,3.4,11.6,94,0.08, ,,-99.99,VWS V12.07,2013-06-14 05:59:00,
2013-06-14 02:05:00,70.8,69.3,29.71,WNW,298,0.0,11.6,95,0.09, ,,-99.99,VWS V12.07,2013-06-14 06:05:00,
2013-06-14 02:10:00,70.6,69.1,29.72,West,268,5.1,11.7,95,0.09, ,,-99.99,VWS V12.07,2013-06-14 06:10:00,
2013-06-14 02:17:00,70.8,69.3,29.71,WNW,303,3.4,3.4,95,0.08, ,,-99.99,VWS V12.07,2013-06-14 06:17:00,
2013-06-14 02:22:00,71.0,69.5,29.70,NW,308,0.0,4.4,95,0.09, ,,-99.99,VWS V12.07,2013-06-14 06:22:00,
2013-06-14 02:28:00,70.5,69.0,29.71,NW,308,0.0,12.5,95,0.09, ,,-99.99,VWS V12.07,2013-06-14 06:28:00,
2013-06-14 02:35:00,70.9,69.3,29.72,NW,308,0.0,12.5,95,0.09, ,,-99.99,VWS V12.07,2013-06-14 06:35:00,
2013-06-14 02:41:00,71.2,69.5,29.72,WSW,244,0.0,4.7,94,0.06, ,,-99.99,VWS V12.07,2013-06-14 06:41:00,
2013-06-14 02:47:00,71.5,69.7,29.71,WSW,244,0.0,4.7,94,0.06, ,,-99.99,VWS V12.07,2013-06-14 06:47:00,
2013-06-14 02:53:00,71.8,69.7,29.72,WSW,244,0.0,4.7,93,0.06, ,,-99.99,VWS V12.07,2013-06-14 06:53:00,
2013-06-14 02:58:00,71.9,69.7,29.72,WSW,244,0.0,0.0,93,0.03, ,,-99.99,VWS V12.07,2013-06-14 06:58:00,
2013-06-14 03:03:00,72.1,69.9,29.72,WSW,244,0.0,0.0,93,0.03, ,,-99.99,VWS V12.07,2013-06-14 07:03:00,
2013-06-14 03:08:00,73.1,70.7,29.72,West,270,6.1,8.6,92,0.03, ,,-99.99,VWS V12.07,2013-06-14 07:08:00,
2013-06-14 03:16:00,73.1,70.3,29.72,WSW,237,5.4,11.9,91,0.03, ,,-99.99,VWS V12.07,2013-06-14 07:16:00,
2013-06-14 03:21:00,73.2,70.2,29.71,West,261,6.3,11.3,90,0.01, ,,-99.99,VWS V12.07,2013-06-14 07:21:00,
2013-06-14 03:26:00,73.0,68.6,29.71,West,270,0.0,11.3,86,0.01, ,,-99.99,VWS V12.07,2013-06-14 07:26:00,
2013-06-14 03:32:00,73.9,69.4,29.70,WNW,284,0.0,11.3,86,0.01, ,,-99.99,VWS V12.07,2013-06-14 07:32:00,
2013-06-14 03:38:00,74.1,69.8,29.71,NW,315,3.0,6.8,86,0.00, ,,-99.99,VWS V12.07,2013-06-14 07:38:00,
2013-06-14 03:43:00,74.2,69.5,29.71,West,275,7.1,10.4,85,0.00, ,,-99.99,VWS V12.07,2013-06-14 07:43:00,
2013-06-14 03:48:00,73.7,69.3,29.71,West,260,3.1,12.5,86,0.00, ,,-99.99,VWS V12.07,2013-06-14 07:48:00,
2013-06-14 03:54:00,74.0,69.4,29.71,WSW,253,13.0,14.4,86,0.00, ,,-99.99,VWS V12.07,2013-06-14 07:54:00,
2013-06-14 03:59:00,73.4,68.6,29.71,WNW,287,6.3,12.1,85,0.00, ,,-99.99,VWS V12.07,2013-06-14 07:59:00,
2013-06-14 04:06:00,73.9,69.2,29.71,WNW,303,7.8,13.9,85,0.00, ,,-99.99,VWS V12.07,2013-06-14 08:06:00,
2013-06-14 04:11:00,73.0,69.0,29.71,WNW,298,8.5,13.9,87,0.00, ,,-99.99,VWS V12.07,2013-06-14 08:11:00,
2013-06-14 04:17:00,72.8,69.4,29.70,WNW,298,9.0,13.9,89,0.00, ,,-99.99,VWS V12.07,2013-06-14 08:17:00,
2013-06-14 04:23:00,72.2,69.2,29.70,NNW,332,8.8,13.9,90,0.00, ,,-99.99,VWS V12.07,2013-06-14 08:23:00,
2013-06-14 04:30:00,71.5,68.9,29.71,WNW,288,14.7,16.4,92,0.00, ,,-99.99,VWS V12.07,2013-06-14 08:30:00,
2013-06-14 04:35:00,71.7,69.3,29.70,NW,318,15.3,16.8,92,0.00, ,,-99.99,VWS V12.07,2013-06-14 08:35:00,
2013-06-14 04:41:00,71.8,69.6,29.70,NW,318,12.0,18.0,93,0.00, ,,-99.99,VWS V12.07,2013-06-14 08:41:00,
2013-06-14 04:47:00,71.3,69.1,29.71,NNW,341,11.1,18.0,93,0.00, ,,-99.99,VWS V12.07,2013-06-14 08:47:00,
2013-06-14 04:52:00,71.5,69.4,29.71,NW,322,15.2,18.0,93,0.00, ,,-99.99,VWS V12.07,2013-06-14 08:52:00,
2013-06-14 04:59:00,70.8,68.8,29.71,NW,312,10.3,15.8,93,0.00, ,,-99.99,VWS V12.07,2013-06-14 08:59:00,
2013-06-14 05:04:00,70.9,68.9,29.71,NNW,334,12.1,15.8,93,0.00, ,,-99.99,VWS V12.07,2013-06-14 09:04:00,
2013-06-14 05:09:00,71.3,69.3,29.72,NNW,334,9.1,17.8,93,0.00, ,,-99.99,VWS V12.07,2013-06-14 09:09:00,
2013-06-14 05:16:00,70.9,68.8,29.72,NW,322,6.3,7.8,93,0.00, ,,-99.99,VWS V12.07,2013-06-14 09:16:00,
2013-06-14 05:23:00,71.0,69.0,29.72,NNW,337,10.0,15.5,94,0.00, ,,-99.99,VWS V12.07,2013-06-14 09:23:00,
2013-06-14 05:29:00,70.5,68.5,29.72,NW,320,9.5,15.7,93,0.00, ,,-99.99,VWS V12.07,2013-06-14 09:29:00,
2013-06-14 05:35:00,71.1,69.0,29.72,NW,315,6.8,15.7,93,0.00, ,,-99.99,VWS V12.07,2013-06-14 09:35:00,
2013-06-14 05:40:00,70.7,68.7,29.72,NW,322,7.5,14.4,93,0.00, ,,-99.99,VWS V12.07,2013-06-14 09:40:00,
2013-06-14 05:45:00,70.0,68.0,29.72,NW,306,14.2,14.7,94,0.00, ,,-99.99,VWS V12.07,2013-06-14 09:45:00,
2013-06-14 05:51:00,70.6,68.7,29.73,NW,326,9.7,14.7,94,0.00, ,,-99.99,VWS V12.07,2013-06-14 09:51:00,
2013-06-14 05:56:00,70.5,68.6,29.73,NW,313,11.0,11.8,94,0.00, ,,-99.99,VWS V12.07,2013-06-14 09:56:00,
2013-06-14 06:02:00,70.2,68.5,29.73,NW,320,10.7,14.7,94,0.00, ,,-99.99,VWS V12.07,2013-06-14 10:02:00,
2013-06-14 06:09:00,69.7,67.9,29.73,NW,320,13.9,16.0,94,0.00, ,,-99.99,VWS V12.07,2013-06-14 10:09:00,
2013-06-14 06:14:00,70.4,68.7,29.74,NNW,337,10.9,17.2,94,0.00, ,,-99.99,VWS V12.07,2013-06-14 10:14:00,
2013-06-14 06:19:00,69.8,67.9,29.74,NW,318,10.3,18.1,94,0.00, ,,-99.99,VWS V12.07,2013-06-14 10:19:00,
2013-06-14 06:24:00,70.1,68.2,29.74,NW,323,13.6,18.1,94,0.00, ,,-99.99,VWS V12.07,2013-06-14 10:24:00,
2013-06-14 06:31:00,70.4,68.5,29.74,NW,309,7.6,18.1,94,0.00, ,,-99.99,VWS V12.07,2013-06-14 10:31:00,
2013-06-14 06:36:00,69.9,67.8,29.75,NW,305,13.2,15.0,93,0.00, ,,-99.99,VWS V12.07,2013-06-14 10:36:00,
2013-06-14 06:42:00,70.2,68.2,29.75,NW,326,12.8,15.0,93,0.00, ,,-99.99,VWS V12.07,2013-06-14 10:42:00,
2013-06-14 06:49:00,69.8,67.6,29.75,NNW,340,11.4,17.0,93,0.00, ,,-99.99,VWS V12.07,2013-06-14 10:49:00,
2013-06-14 06:54:00,70.1,67.7,29.75,NW,319,12.6,17.0,92,0.00, ,,-99.99,VWS V12.07,2013-06-14 10:54:00,
2013-06-14 07:01:00,70.4,67.5,29.75,NW,325,10.5,19.2,90,0.00, ,,-99.99,VWS V12.07,2013-06-14 11:01:00,
2013-06-14 07:06:00,70.5,67.4,29.75,NW,323,13.6,19.2,90,0.00, ,,-99.99,VWS V12.07,2013-06-14 11:06:00,
2013-06-14 07:12:00,70.5,67.4,29.75,NW,319,18.3,19.2,90,0.00, ,,-99.99,VWS V12.07,2013-06-14 11:12:00,
2013-06-14 07:18:00,70.8,66.8,29.76,NW,322,16.5,19.2,87,92.93, ,,-99.99,VWS V12.07,2013-06-14 11:18:00,
2013-06-14 07:23:00,71.0,-29.6,29.76,NW,323,10.8,19.2,1,90.52, ,,-99.99,VWS V12.07,2013-06-14 11:23:00,
2013-06-14 07:29:00,70.9,66.9,29.76,NNW,333,11.2,19.2,87,92.93, ,,-99.99,VWS V12.07,2013-06-14 11:29:00,
2013-06-14 07:35:00,70.6,66.2,29.76,NW,315,14.0,20.1,86,92.93, ,,-99.99,VWS V12.07,2013-06-14 11:35:00,
2013-06-14 07:41:00,70.8,66.6,29.76,NW,312,6.7,20.1,87,0.00, ,,-99.99,VWS V12.07,2013-06-14 11:41:00,
2013-06-14 07:46:00,71.0,66.3,29.76,NW,323,15.2,20.1,85,0.00, ,,-99.99,VWS V12.07,2013-06-14 11:46:00,
2013-06-14 07:52:00,71.2,66.7,29.76,NNW,336,12.1,20.1,86,0.00, ,,-99.99,VWS V12.07,2013-06-14 11:52:00,
2013-06-14 07:58:00,71.3,66.1,29.77,NW,319,14.3,15.5,84,0.00, ,,-99.99,VWS V12.07,2013-06-14 11:58:00,
2013-06-14 08:05:00,71.1,66.7,29.77,NW,319,15.2,19.0,86,0.00, ,,-99.99,VWS V12.07,2013-06-14 12:05:00,
2013-06-14 08:10:00,71.3,66.3,29.77,NNW,330,11.3,19.0,84,0.00, ,,-99.99,VWS V12.07,2013-06-14 12:10:00,
2013-06-14 08:15:00,71.3,65.9,29.77,NNW,329,11.2,19.0,83,0.00, ,,-99.99,VWS V12.07,2013-06-14 12:15:00,
2013-06-14 08:20:00,71.9,66.8,29.77,NW,322,14.2,17.3,84,0.00, ,,-99.99,VWS V12.07,2013-06-14 12:20:00,
2013-06-14 08:26:00,71.5,65.2,29.77,NW,326,15.7,18.6,80,0.00, ,,-99.99,VWS V12.07,2013-06-14 12:26:00,
2013-06-14 08:31:00,71.7,64.5,29.77,NW,313,19.0,22.7,78,0.00, ,,-99.99,VWS V12.07,2013-06-14 12:31:00,
2013-06-14 08:37:00,72.3,64.9,29.78,NNW,333,15.3,16.5,78,0.00, ,,-99.99,VWS V12.07,2013-06-14 12:37:00,
2013-06-14 08:42:00,72.6,63.1,29.78,NNW,336,18.8,26.6,72,0.00, ,,-99.99,VWS V12.07,2013-06-14 12:42:00,
2013-06-14 08:48:00,72.0,61.2,29.78,NW,325,19.7,28.2,69,0.00, ,,-99.99,VWS V12.07,2013-06-14 12:48:00,
2013-06-14 08:53:00,72.7,63.3,29.78,NNW,346,17.0,28.2,72,0.00, ,,-99.99,VWS V12.07,2013-06-14 12:53:00,
2013-06-14 09:00:00,72.4,61.5,29.79,NNW,330,21.4,25.0,69,0.00, ,,-99.99,VWS V12.07,2013-06-14 13:00:00,
2013-06-14 09:05:00,72.6,61.9,29.79,NNW,346,15.5,25.0,69,0.00, ,,-99.99,VWS V12.07,2013-06-14 13:05:00,
2013-06-14 09:11:00,72.5,61.0,29.79,NW,326,19.3,25.0,67,0.00, ,,-99.99,VWS V12.07,2013-06-14 13:11:00,
2013-06-14 09:16:00,72.8,62.0,29.79,NNW,330,16.8,16.8,69,0.00, ,,-99.99,VWS V12.07,2013-06-14 13:16:00,
2013-06-14 09:22:00,73.1,62.5,29.79,NNW,327,11.3,19.4,69,0.00, ,,-99.99,VWS V12.07,2013-06-14 13:22:00,
2013-06-14 09:28:00,73.3,61.5,29.79,NNW,332,11.9,19.4,66,0.00, ,,-99.99,VWS V12.07,2013-06-14 13:28:00,
2013-06-14 09:34:00,73.2,60.7,29.79,NNW,332,17.8,21.6,65,0.00, ,,-99.99,VWS V12.07,2013-06-14 13:34:00,
2013-06-14 09:40:00,72.9,60.6,29.79,NW,320,14.1,24.2,65,0.00, ,,-99.99,VWS V12.07,2013-06-14 13:40:00,
2013-06-14 09:45:00,73.2,61.2,29.80,NW,323,11.7,24.2,66,0.00, ,,-99.99,VWS V12.07,2013-06-14 13:45:00,
2013-06-14 09:51:00,73.1,61.2,29.80,NNW,336,20.2,28.7,66,0.00, ,,-99.99,VWS V12.07,2013-06-14 13:51:00,
2013-06-14 09:56:00,73.2,60.7,29.80,NW,322,21.3,21.3,65,0.00, ,,-99.99,VWS V12.07,2013-06-14 13:56:00,
2013-06-14 10:02:00,72.9,61.6,29.80,NNW,332,16.4,25.2,68,0.00, ,,-99.99,VWS V12.07,2013-06-14 14:02:00,
2013-06-14 10:07:00,73.4,61.0,29.80,NNW,339,23.8,25.2,65,0.00, ,,-99.99,VWS V12.07,2013-06-14 14:07:00,
2013-06-14 10:13:00,73.3,60.9,29.81,NNW,333,17.1,25.2,65,0.00, ,,-99.99,VWS V12.07,2013-06-14 14:13:00,
2013-06-14 10:20:00,74.1,61.9,29.81,NNW,329,13.9,19.4,66,0.00, ,,-99.99,VWS V12.07,2013-06-14 14:20:00,
2013-06-14 10:25:00,74.2,61.8,29.81,North,355,11.8,20.5,65,0.00, ,,-99.99,VWS V12.07,2013-06-14 14:25:00,
2013-06-14 10:31:00,73.4,60.5,29.82,NNW,343,16.0,20.5,64,0.00, ,,-99.99,VWS V12.07,2013-06-14 14:31:00,
2013-06-14 10:36:00,74.1,60.3,29.82,NNW,336,15.2,16.8,62,94.44, ,,-99.99,VWS V12.07,2013-06-14 14:36:00,
2013-06-14 10:42:00,74.4,60.9,29.81,NW,316,14.4,21.3,63,94.44, ,,-99.99,VWS V12.07,2013-06-14 14:42:00,
2013-06-14 10:47:00,74.1,60.3,29.81,NNE,14,9.2,21.3,62,94.44, ,,-99.99,VWS V12.07,2013-06-14 14:47:00,
2013-06-14 10:53:00,74.0,59.8,29.82,NNW,336,18.4,21.6,61,94.44, ,,-99.99,VWS V12.07,2013-06-14 14:53:00,
2013-06-14 10:58:00,74.4,59.6,29.82,NNW,348,15.0,21.6,60,0.00, ,,-99.99,VWS V12.07,2013-06-14 14:58:00,
2013-06-14 11:04:00,74.7,60.4,29.82,NW,322,16.3,21.6,61,0.00, ,,-99.99,VWS V12.07,2013-06-14 15:04:00,
2013-06-14 11:10:00,74.6,60.0,29.82,NNW,332,18.4,21.6,60,0.00, ,,-99.99,VWS V12.07,2013-06-14 15:10:00,
2013-06-14 11:16:00,74.9,61.2,29.82,NW,322,15.8,15.8,62,0.00, ,,-99.99,VWS V12.07,2013-06-14 15:16:00,
2013-06-14 11:21:00,74.9,60.4,29.82,NW,326,15.8,23.2,61,0.00, ,,-99.99,VWS V12.07,2013-06-14 15:21:00,
2013-06-14 11:27:00,75.3,61.6,29.82,NNW,340,16.8,23.2,62,0.00, ,,-99.99,VWS V12.07,2013-06-14 15:27:00,
2013-06-14 11:33:00,75.1,61.2,29.82,NW,308,8.7,23.2,62,0.00, ,,-99.99,VWS V12.07,2013-06-14 15:33:00,
2013-06-14 11:39:00,75.7,61.5,29.82,North,5,16.2,26.7,61,0.00, ,,-99.99,VWS V12.07,2013-06-14 15:39:00,
2013-06-14 11:45:00,75.8,61.3,29.83,North,1,12.2,26.7,61,0.00, ,,-99.99,VWS V12.07,2013-06-14 15:45:00,
2013-06-14 11:51:00,75.8,60.9,29.83,NW,325,20.5,26.7,60,0.00, ,,-99.99,VWS V12.07,2013-06-14 15:51:00,
2013-06-14 11:56:00,76.0,60.3,29.83,NNW,334,7.6,8.3,58,0.00, ,,-99.99,VWS V12.07,2013-06-14 15:56:00,
2013-06-14 12:02:00,75.8,61.3,29.83,NW,326,18.5,20.0,61,0.00, ,,-99.99,VWS V12.07,2013-06-14 16:02:00,
2013-06-14 12:07:00,75.1,59.4,29.83,NW,319,16.3,21.3,58,0.00, ,,-99.99,VWS V12.07,2013-06-14 16:07:00,
2013-06-14 12:13:00,75.0,59.3,29.83,NNW,336,13.2,21.8,58,0.00, ,,-99.99,VWS V12.07,2013-06-14 16:13:00,
2013-06-14 12:19:00,75.3,59.0,29.84,NW,310,12.3,22.3,57,0.00, ,,-99.99,VWS V12.07,2013-06-14 16:19:00,
2013-06-14 12:24:00,76.2,59.9,29.84,NNW,332,14.9,22.3,57,0.00, ,,-99.99,VWS V12.07,2013-06-14 16:24:00,
2013-06-14 12:30:00,76.1,59.6,29.83,NNW,337,14.2,22.3,57,0.00, ,,-99.99,VWS V12.07,2013-06-14 16:30:00,
2013-06-14 12:36:00,76.4,60.2,29.84,North,353,7.6,11.6,57,0.00, ,,-99.99,VWS V12.07,2013-06-14 16:36:00,
2013-06-14 12:41:00,75.7,59.0,29.84,NNW,340,17.0,22.9,56,0.00, ,,-99.99,VWS V12.07,2013-06-14 16:41:00,
2013-06-14 12:47:00,76.4,60.9,29.84,NNW,348,14.8,22.9,59,0.00, ,,-99.99,VWS V12.07,2013-06-14 16:47:00,
2013-06-14 12:52:00,76.0,58.8,29.84,NNE,14,9.3,23.2,55,0.00, ,,-99.99,VWS V12.07,2013-06-14 16:52:00,
2013-06-14 12:58:00,76.1,58.6,29.85,NE,39,22.1,23.4,55,0.00, ,,-99.99,VWS V12.07,2013-06-14 16:58:00,
2013-06-14 13:04:00,76.1,59.9,29.85,NW,322,16.0,24.9,57,0.00, ,,-99.99,VWS V12.07,2013-06-14 17:04:00,
2013-06-14 13:10:00,76.1,59.2,29.85,NNW,341,19.8,24.9,56,0.00, ,,-99.99,VWS V12.07,2013-06-14 17:10:00,
2013-06-14 13:16:00,76.7,58.9,29.85,NNW,346,12.6,24.9,54,0.00, ,,-99.99,VWS V12.07,2013-06-14 17:16:00,
2013-06-14 13:21:00,76.9,60.1,29.85,NNW,332,17.8,24.9,56,0.00, ,,-99.99,VWS V12.07,2013-06-14 17:21:00,
2013-06-14 13:27:00,76.9,59.4,29.86,NNW,329,16.2,24.9,55,0.00, ,,-99.99,VWS V12.07,2013-06-14 17:27:00,
2013-06-14 13:32:00,76.4,59.0,29.86,NNW,334,17.3,24.9,55,0.00, ,,-99.99,VWS V12.07,2013-06-14 17:32:00,
2013-06-14 13:38:00,77.2,59.3,29.86,NNW,347,16.8,16.8,54,0.00, ,,-99.99,VWS V12.07,2013-06-14 17:38:00,
2013-06-14 13:43:00,75.8,58.1,29.86,North,350,11.4,19.8,54,0.00, ,,-99.99,VWS V12.07,2013-06-14 17:43:00,
2013-06-14 13:48:00,76.7,59.3,29.87,NNW,339,10.4,22.2,55,0.00, ,,-99.99,VWS V12.07,2013-06-14 17:48:00,
2013-06-14 13:54:00,76.7,58.7,29.86,North,1,12.5,22.2,54,0.00, ,,-99.99,VWS V12.07,2013-06-14 17:54:00,
2013-06-14 13:59:00,77.1,58.4,29.86,NNW,334,13.0,19.4,52,0.00, ,,-99.99,VWS V12.07,2013-06-14 17:59:00,
2013-06-14 14:05:00,76.9,59.3,29.87,NNW,340,15.2,20.6,55,0.00, ,,-99.99,VWS V12.07,2013-06-14 18:05:00,
2013-06-14 14:10:00,76.7,57.8,29.87,NNW,343,18.1,20.6,52,0.00, ,,-99.99,VWS V12.07,2013-06-14 18:10:00,
2013-06-14 14:16:00,77.2,58.7,29.87,North,358,7.4,21.6,53,0.00, ,,-99.99,VWS V12.07,2013-06-14 18:16:00,
2013-06-14 14:21:00,76.2,57.9,29.87,North,351,14.4,21.6,53,0.00, ,,-99.99,VWS V12.07,2013-06-14 18:21:00,
2013-06-14 14:27:00,76.3,58.7,29.87,North,355,14.6,21.6,54,0.00, ,,-99.99,VWS V12.07,2013-06-14 18:27:00,
2013-06-14 14:32:00,76.2,59.9,29.87,North,355,12.8,21.6,57,0.00, ,,-99.99,VWS V12.07,2013-06-14 18:32:00,
2013-06-14 14:38:00,76.2,60.7,29.87,North,353,12.5,20.9,59,0.00, ,,-99.99,VWS V12.07,2013-06-14 18:38:00,
2013-06-14 14:43:00,76.2,59.1,29.87,WNW,303,17.0,20.9,55,0.00, ,,-99.99,VWS V12.07,2013-06-14 18:43:00,
2013-06-14 14:49:00,76.7,59.5,29.87,NNW,341,13.0,20.9,55,0.00, ,,-99.99,VWS V12.07,2013-06-14 18:49:00,
2013-06-14 14:55:00,76.4,59.0,29.87,NNW,347,15.8,20.9,55,0.00, ,,-99.99,VWS V12.07,2013-06-14 18:55:00,
2013-06-14 15:01:00,76.3,58.5,29.87,NNW,333,13.9,20.9,54,0.00, ,,-99.99,VWS V12.07,2013-06-14 19:01:00,
2013-06-14 15:06:00,76.2,58.8,29.87,North,354,13.8,20.9,55,0.00, ,,-99.99,VWS V12.07,2013-06-14 19:06:00,
2013-06-14 15:12:00,75.7,56.9,29.88,North,2,16.4,21.5,52,0.00, ,,-99.99,VWS V12.07,2013-06-14 19:12:00,
2013-06-14 15:18:00,76.5,58.1,29.88,NNW,333,13.2,18.2,53,0.00, ,,-99.99,VWS V12.07,2013-06-14 19:18:00,
2013-06-14 15:23:00,76.8,59.5,29.88,NNW,340,15.0,21.1,55,0.00, ,,-99.99,VWS V12.07,2013-06-14 19:23:00,
2013-06-14 15:28:00,76.8,58.8,29.88,NNW,337,19.0,25.2,54,0.00, ,,-99.99,VWS V12.07,2013-06-14 19:28:00,
2013-06-14 15:34:00,76.9,56.5,29.88,North,354,15.3,26.4,49,0.00, ,,-99.99,VWS V12.07,2013-06-14 19:34:00,
2013-06-14 15:41:00,76.2,57.2,29.89,NNW,344,19.3,23.1,52,0.00, ,,-99.99,VWS V12.07,2013-06-14 19:41:00,
2013-06-14 15:46:00,76.9,57.5,29.89,NW,319,19.1,27.1,51,0.00, ,,-99.99,VWS V12.07,2013-06-14 19:46:00,
2013-06-14 15:51:00,76.9,59.1,29.89,NNW,343,16.3,27.1,54,0.00, ,,-99.99,VWS V12.07,2013-06-14 19:51:00,
2013-06-14 15:58:00,76.5,58.7,29.89,NNE,12,17.3,18.2,54,0.00, ,,-99.99,VWS V12.07,2013-06-14 19:58:00,
2013-06-14 16:03:00,76.7,59.1,29.89,North,10,13.4,21.4,55,0.00, ,,-99.99,VWS V12.07,2013-06-14 20:03:00,
2013-06-14 16:10:00,77.0,57.4,29.89,NW,323,17.5,21.4,51,0.00, ,,-99.99,VWS V12.07,2013-06-14 20:10:00,
2013-06-14 16:16:00,16.4,2.0,29.89,NNE,25,21.2,22.2,52,0.00, ,,-99.99,VWS V12.07,2013-06-14 20:16:00,
2013-06-14 16:21:00,76.8,57.4,29.89,NW,310,14.3,21.6,51,0.00, ,,-99.99,VWS V12.07,2013-06-14 20:21:00,
2013-06-14 16:27:00,22.9,8.3,29.89,NNE,25,13.7,26.0,53,0.00, ,,-99.99,VWS V12.07,2013-06-14 20:27:00,
2013-06-14 16:32:00,77.3,58.4,29.89,NW,326,14.3,26.0,52,0.00, ,,-99.99,VWS V12.07,2013-06-14 20:32:00,
2013-06-14 16:38:00,77.2,59.1,29.89,NNW,339,14.4,22.4,54,0.00, ,,-99.99,VWS V12.07,2013-06-14 20:38:00,
2013-06-14 16:43:00,77.3,59.2,29.90,NNW,340,18.5,23.7,54,0.00, ,,-99.99,VWS V12.07,2013-06-14 20:43:00,
2013-06-14 16:50:00,76.9,57.5,29.90,NNW,347,17.6,26.2,51,0.00, ,,-99.99,VWS V12.07,2013-06-14 20:50:00,
2013-06-14 16:55:00,76.3,57.9,29.90,NNW,341,18.3,26.2,53,0.00, ,,-99.99,VWS V12.07,2013-06-14 20:55:00,
2013-06-14 17:00:00,76.8,58.7,29.91,NNW,343,19.3,30.9,54,0.00, ,,-99.99,VWS V12.07,2013-06-14 21:00:00,
2013-06-14 17:05:00,75.7,57.3,29.91,NNW,341,11.7,30.9,53,0.00, ,,-99.99,VWS V12.07,2013-06-14 21:05:00,
2013-06-14 17:11:00,76.7,59.3,29.91,WNW,298,10.1,30.9,55,0.00, ,,-99.99,VWS V12.07,2013-06-14 21:11:00,
2013-06-14 17:18:00,75.8,56.5,29.91,North,357,17.6,24.0,51,0.00, ,,-99.99,VWS V12.07,2013-06-14 21:18:00,
2013-06-14 17:23:00,75.7,57.4,29.91,NW,326,12.2,27.9,53,0.00, ,,-99.99,VWS V12.07,2013-06-14 21:23:00,
2013-06-14 17:29:00,76.4,57.8,29.91,NNW,329,15.0,27.9,53,0.00, ,,-99.99,VWS V12.07,2013-06-14 21:29:00,
2013-06-14 17:34:00,76.0,58.6,29.91,NNW,332,18.5,27.9,55,0.00, ,,-99.99,VWS V12.07,2013-06-14 21:34:00,
2013-06-14 17:39:00,76.4,57.5,29.91,North,355,10.9,21.5,52,0.00, ,,-99.99,VWS V12.07,2013-06-14 21:39:00,
2013-06-14 17:44:00,76.5,57.8,29.91,NNW,340,13.9,21.5,52,0.00, ,,-99.99,VWS V12.07,2013-06-14 21:44:00,
2013-06-14 17:50:00,76.5,57.9,29.91,NNW,332,14.2,21.5,53,0.00, ,,-99.99,VWS V12.07,2013-06-14 21:50:00,
2013-06-14 17:55:00,76.7,58.1,29.91,North,351,14.1,21.5,53,0.00, ,,-99.99,VWS V12.07,2013-06-14 21:55:00,
2013-06-14 18:01:00,76.4,57.3,29.91,North,355,14.6,19.4,52,0.00, ,,-99.99,VWS V12.07,2013-06-14 22:01:00,
2013-06-14 18:07:00,76.7,57.3,29.91,NNW,340,18.4,19.4,51,0.00, ,,-99.99,VWS V12.07,2013-06-14 22:07:00,
2013-06-14 18:13:00,76.3,58.4,29.91,NNW,340,11.9,22.6,54,0.00, ,,-99.99,VWS V12.07,2013-06-14 22:13:00,
2013-06-14 18:18:00,76.0,57.1,29.91,NNW,337,12.7,19.6,52,0.00, ,,-99.99,VWS V12.07,2013-06-14 22:18:00,
2013-06-14 18:24:00,76.4,59.2,29.91,North,355,8.2,21.8,55,0.00, ,,-99.99,VWS V12.07,2013-06-14 22:24:00,
2013-06-14 18:30:00,76.4,58.1,29.91,NNW,344,16.0,21.8,53,0.00, ,,-99.99,VWS V12.07,2013-06-14 22:30:00,
2013-06-14 18:36:00,76.1,58.1,29.92,NNW,347,16.5,17.3,54,0.00, ,,-99.99,VWS V12.07,2013-06-14 22:36:00,
2013-06-14 18:42:00,75.7,57.8,29.92,NNW,341,13.6,23.1,54,0.00, ,,-99.99,VWS V12.07,2013-06-14 22:42:00,
2013-06-14 18:48:00,19.5,5.7,29.92,NNE,25,10.6,23.1,54,0.00, ,,-99.99,VWS V12.07,2013-06-14 22:48:00,
2013-06-14 18:53:00,75.8,58.0,29.92,NNW,333,15.8,23.1,54,0.00, ,,-99.99,VWS V12.07,2013-06-14 22:53:00,
2013-06-14 18:59:00,75.9,58.2,29.92,NNW,346,16.5,23.1,54,0.00, ,,-99.99,VWS V12.07,2013-06-14 22:59:00,
2013-06-14 19:04:00,75.4,57.9,29.92,NNW,346,17.4,23.1,54,0.00, ,,-99.99,VWS V12.07,2013-06-14 23:04:00,
2013-06-14 19:10:00,75.0,57.3,29.92,North,355,16.9,23.1,54,0.00, ,,-99.99,VWS V12.07,2013-06-14 23:10:00,
2013-06-14 19:16:00,75.2,58.3,29.93,NNW,336,14.5,23.1,56,0.00, ,,-99.99,VWS V12.07,2013-06-14 23:16:00,
2013-06-14 19:21:00,74.3,57.1,29.93,North,354,14.1,17.3,55,0.00, ,,-99.99,VWS V12.07,2013-06-14 23:21:00,
2013-06-14 19:27:00,11.4,-0.3,29.93,NNE,25,11.1,17.3,59,0.00, ,,-99.99,VWS V12.07,2013-06-14 23:27:00,
2013-06-14 19:32:00,74.8,58.4,29.93,NNE,24,9.8,17.3,57,0.00, ,,-99.99,VWS V12.07,2013-06-14 23:32:00,
2013-06-14 19:38:00,56.7,-38.5,29.93,WNW,295,11.1,14.2,1,0.00, ,,-99.99,VWS V12.07,2013-06-14 23:38:00,
2013-06-14 19:43:00,75.3,59.0,29.93,North,358,13.9,16.6,57,0.00, ,,-99.99,VWS V12.07,2013-06-14 23:43:00,
2013-06-14 19:48:00,74.9,59.3,29.94,NE,36,11.9,16.6,58,0.00, ,,-99.99,VWS V12.07,2013-06-14 23:48:00,
2013-06-14 19:54:00,74.8,58.5,29.94,North,355,9.9,16.6,57,0.00, ,,-99.99,VWS V12.07,2013-06-14 23:54:00,
2013-06-14 20:00:00,74.1,59.3,29.94,North,353,8.1,17.5,60,0.00, ,,-99.99,VWS V12.07,2013-06-15 00:00:00,
2013-06-14 20:06:00,74.1,59.4,29.94,North,7,11.7,17.5,60,0.00, ,,-99.99,VWS V12.07,2013-06-15 00:06:00,
2013-06-14 20:11:00,73.6,59.0,29.95,NNE,12,9.2,17.5,60,0.00, ,,-99.99,VWS V12.07,2013-06-15 00:11:00,
2013-06-14 20:17:00,73.8,59.8,29.95,North,11,9.5,17.5,62,0.00, ,,-99.99,VWS V12.07,2013-06-15 00:17:00,
2013-06-14 20:23:00,74.0,59.6,29.95,North,353,11.6,17.5,61,0.08, ,,-99.99,VWS V12.07,2013-06-15 00:23:00,
2013-06-14 20:30:00,73.2,59.5,29.95,North,2,8.1,17.5,62,0.00, ,,-99.99,VWS V12.07,2013-06-15 00:30:00,
2013-06-14 20:35:00,73.8,60.1,29.95,North,353,11.8,17.5,62,0.00, ,,-99.99,VWS V12.07,2013-06-15 00:35:00,
2013-06-14 20:41:00,73.1,60.0,29.96,North,355,11.6,17.5,64,0.00, ,,-99.99,VWS V12.07,2013-06-15 00:41:00,
2013-06-14 20:46:00,73.6,61.0,29.96,North,5,12.4,17.5,65,0.00, ,,-99.99,VWS V12.07,2013-06-15 00:46:00,
2013-06-14 20:52:00,73.0,59.9,29.96,North,5,7.6,17.5,64,0.00, ,,-99.99,VWS V12.07,2013-06-15 00:52:00,
2013-06-14 20:57:00,73.2,60.5,29.96,North,353,11.4,11.4,64,0.00, ,,-99.99,VWS V12.07,2013-06-15 00:57:00,
2013-06-14 21:03:00,72.6,60.1,29.96,NNE,22,7.2,12.8,65,0.00, ,,-99.99,VWS V12.07,2013-06-15 01:03:00,
2013-06-14 21:08:00,71.9,59.9,29.97,NNE,21,10.3,12.8,66,0.00, ,,-99.99,VWS V12.07,2013-06-15 01:08:00,
2013-06-14 21:14:00,72.1,59.9,29.97,NNE,25,11.4,15.1,65,0.00, ,,-99.99,VWS V12.07,2013-06-15 01:14:00,
2013-06-14 21:20:00,71.9,59.5,29.97,NNE,22,11.4,14.2,65,0.00, ,,-99.99,VWS V12.07,2013-06-15 01:20:00,
2013-06-14 21:26:00,71.3,59.4,29.97,NNE,24,12.6,15.3,66,0.00, ,,-99.99,VWS V12.07,2013-06-15 01:26:00,
2013-06-14 21:31:00,71.2,60.1,29.98,North,5,13.7,16.7,68,0.00, ,,-99.99,VWS V12.07,2013-06-15 01:31:00,
2013-06-14 21:37:00,71.4,61.6,29.98,NNE,12,14.6,18.2,71,0.00, ,,-99.99,VWS V12.07,2013-06-15 01:37:00,
2013-06-14 21:42:00,71.3,61.2,29.98,North,11,9.0,21.3,70,0.00, ,,-99.99,VWS V12.07,2013-06-15 01:42:00,
2013-06-14 21:48:00,70.9,60.8,29.99,NE,50,9.1,21.3,70,0.00, ,,-99.99,VWS V12.07,2013-06-15 01:48:00,
2013-06-14 21:55:00,71.4,61.1,29.99,ENE,57,11.2,21.3,70,0.00, ,,-99.99,VWS V12.07,2013-06-15 01:55:00,
2013-06-14 22:00:00,71.0,61.0,29.99,ENE,63,5.3,16.8,71,0.00, ,,-99.99,VWS V12.07,2013-06-15 02:00:00,
2013-06-14 22:06:00,70.8,61.1,29.99,NNE,14,10.7,19.5,71,0.00, ,,-99.99,VWS V12.07,2013-06-15 02:06:00,
2013-06-14 22:12:00,70.7,61.0,30.00,NE,50,9.5,19.5,72,0.00, ,,-99.99,VWS V12.07,2013-06-15 02:12:00,
2013-06-14 22:17:00,70.4,60.0,30.00,ENE,64,12.1,16.7,70,0.00, ,,-99.99,VWS V12.07,2013-06-15 02:17:00,
2013-06-14 22:22:00,70.3,60.2,30.00,NE,40,11.0,18.5,70,0.00, ,,-99.99,VWS V12.07,2013-06-15 02:22:00,
2013-06-14 22:28:00,70.5,60.0,30.01,ESE,107,12.7,18.5,69,0.00, ,,-99.99,VWS V12.07,2013-06-15 02:28:00,
2013-06-14 22:35:00,69.9,59.7,30.01,ENE,63,15.7,19.5,70,0.00, ,,-99.99,VWS V12.07,2013-06-15 02:35:00,
2013-06-14 22:40:00,69.5,59.5,30.01,ENE,78,7.8,16.0,70,0.00, ,,-99.99,VWS V12.07,2013-06-15 02:40:00,
2013-06-14 22:46:00,69.9,59.8,30.02,ENE,64,7.8,16.1,70,0.00, ,,-99.99,VWS V12.07,2013-06-15 02:46:00,
2013-06-14 22:52:00,70.1,59.4,30.02,ENE,71,8.4,16.5,69,0.00, ,,-99.99,VWS V12.07,2013-06-15 02:52:00,
2013-06-14 22:58:00,69.6,58.6,30.02,East,95,11.2,15.0,68,0.00, ,,-99.99,VWS V12.07,2013-06-15 02:58:00,
2013-06-14 23:04:00,69.8,57.4,30.02,ENE,76,12.5,15.0,65,0.00, ,,-99.99,VWS V12.07,2013-06-15 03:04:00,
2013-06-14 23:10:00,69.5,57.8,30.02,East,80,14.4,15.0,66,0.00, ,,-99.99,VWS V12.07,2013-06-15 03:10:00,
2013-06-14 23:17:00,69.4,57.5,30.02,East,90,10.3,15.6,66,0.00, ,,-99.99,VWS V12.07,2013-06-15 03:17:00,
2013-06-14 23:22:00,68.9,56.9,30.02,East,95,9.9,15.6,66,0.00, ,,-99.99,VWS V12.07,2013-06-15 03:22:00,
2013-06-14 23:27:00,69.1,57.4,30.02,ENE,77,9.5,15.6,66,0.00, ,,-99.99,VWS V12.07,2013-06-15 03:27:00,
2013-06-14 23:34:00,69.3,57.8,30.02,East,88,9.5,15.6,67,0.00, ,,-99.99,VWS V12.07,2013-06-15 03:34:00,
2013-06-14 23:39:00,68.6,57.1,30.02,ENE,69,10.8,12.0,67,0.00, ,,-99.99,VWS V12.07,2013-06-15 03:39:00,
2013-06-14 23:45:00,69.2,57.6,30.02,East,85,9.1,13.4,66,0.00, ,,-99.99,VWS V12.07,2013-06-15 03:45:00,
2013-06-14 23:50:00,69.1,57.0,30.02,NE,52,8.8,14.0,65,0.00, ,,-99.99,VWS V12.07,2013-06-15 03:50:00,
2013-06-14 23:57:00,69.0,57.7,30.03,East,81,9.6,10.1,67,0.00, ,,-99.99,VWS V12.07,2013-06-15 03:57:00,